Погода в Топольном

Россия / Алтайский край     51°30′31″N   84°28′50″E
темп.,
°C
ветер,
м/с
пор.,
м/с
влажн.,
%
обл.,
%
осадки,
мм/ч
давл.,
гПа
погр.,
м
18 октября, пн
пн1801:00−1ю22825 0.0 102816
04:00−1ю228235 0.0 102919
07:00−2ю22835 0.0 102919
10:00+4юв11585 0.0 1028127
13:00+8с21485 0.0 1026654
16:00+8с2150100 0.0 1026703
19:00+2ю11743 0.0 102810
22:00+1ююв22790 0.0 102918
19 октября, вт
вт1901:00+1ююв22770 0.0 102915
04:000ююв22740 0.0 102916
07:000ююв22731 0.0 102925
10:00+4юв23535 0.0 1027132
13:00+11всв12345 0.0 1024590
16:00+11ссв11345 0.0 1023595
19:00+5ю22595 0.0 102512
22:00+3ююв32645 0.0 102538
20 октября, ср
ср2001:00+2ююв226018 0.0 102529
04:00+2ююв32515 0.0 102428
07:00+2ююв32468 0.0 102431
10:00+7юв233742 0.0 102286
13:00+13вюв122321 0.0 1019447
16:00+13в12245 0.0 1018488
19:00+6ю22500 0.0 102023
22:00+5ююв32490 0.0 102133
21 октября, чт
чт2101:00+4ююв32400 0.0 102037
04:00+3ююв32405 0.0 102040
07:00+3ююв334215 0.0 102044
10:00+7юв343660 0.0 1018111
13:00+14юв232386 0.0 1015460
16:00+15вюв222586 0.0 1014352
19:00+8ююв334945 0.0 101641
22:00+6ююв34448 0.0 101750
22 октября, пт
пт2201:00+6ююв344189 0.0 101749
04:00+6ююв344276 0.0 101759
07:00+6ююв344052 0.0 101861
10:00+10ююв2436100 0.0 1017108
13:00+16в112487 0.0 1015575
16:00+14ссз3429100 0.0 1016599
19:00+7ссв1151100 0.0 101911
22:00+5з1171100 0.0 102010